Zurück zum Katalog

SCOUT B DEB

AktivUNKNOWN
NORAD 37862·DEBRIS·🇺🇸 United States

Gestartet Aug 10, 1965 von Wallops Flight Facility

Loading…

Nächste Überflüge (nächste 24 Stunden)

TLE

AktuellSource: Space-Track

Epoche: Sep 14, 2026, 03:05 UTC

1 37862U 65063AE  26257.12894642  .00012646  00000-0  23231-1 0  9995
2 37862  69.1413 299.3254 0760939 212.8293 142.3222 12.61476899761673

Verfolge SCOUT B DEB in Echtzeit mit AllMySat

Download on the App Store